When you browse on this site, cookies collect data to enhance your experience and personalize the content and advertising you see.
Visit our Privacy Policy to learn more. By continuing to use the site, you agree to this use of cookies and data.
  • în România
  • Lista ţărilor
  • Pe 7 zile
  • Temperatura apei
  • Hartă satelitară
  • Meteo pe hartă
  • Widget-uri
  • user-avatar
    Intrare

    Meteo pe oră la Parczew

    Astăzi, 20 Mai, Luni

    Timp Temperatura Precipitaţii Vânt Presiune Umiditate
    00:00 +17°C° 0 mm 4 m/s 743 mmHg 95%
    01:00 +17°C° 0 mm 4 m/s 743 mmHg 96%
    02:00 +17°C° 0 mm 4 m/s 743 mmHg 96%
    03:00 +17°C° 0.6 mm 4 m/s 742 mmHg 96%
    04:00 +16°C° 0.6 mm 5 m/s 742 mmHg 97%
    05:00 +16°C° 0.6 mm 5 m/s 742 mmHg 97%
    06:00 +17°C° 0.3 mm 5 m/s 742 mmHg 95%
    07:00 +17°C° 0.3 mm 6 m/s 742 mmHg 93%
    08:00 +20°C° 0 mm 7 m/s 742 mmHg 92%
    09:00 +20°C° 0 mm 6 m/s 742 mmHg 89%
    10:00 +21°C° 0 mm 6 m/s 742 mmHg 86%
    11:00 +22°C° 0 mm 5 m/s 742 mmHg 84%
    12:00 +23°C° 0.8 mm 5 m/s 742 mmHg 80%
    13:00 +24°C° 0.8 mm 6 m/s 742 mmHg 76%
    14:00 +26°C° 0.8 mm 6 m/s 742 mmHg 72%
    15:00 +25°C° 2.3 mm 5 m/s 742 mmHg 76%
    16:00 +23°C° 2.3 mm 4 m/s 741 mmHg 81%
    17:00 +22°C° 2.3 mm 4 m/s 741 mmHg 85%
    18:00 +21°C° 0.8 mm 4 m/s 741 mmHg 88%
    19:00 +20°C° 0.8 mm 3 m/s 741 mmHg 90%
    20:00 +18°C° 0.8 mm 3 m/s 741 mmHg 92%
    21:00 +18°C° 0 mm 3 m/s 741 mmHg 93%
    22:00 +17°C° 0 mm 3 m/s 741 mmHg 94%
    23:00 +17°C° 0 mm 4 m/s 741 mmHg 95%

    Mâine, 21 Mai, Marţi

    Timp Temperatura Precipitaţii Vânt Presiune Umiditate
    00:00 +17°C° 0 mm 3 m/s 741 mmHg 95%
    01:00 +16°C° 0 mm 3 m/s 741 mmHg 95%
    02:00 +16°C° 0 mm 2 m/s 741 mmHg 96%
    03:00 +16°C° 0.3 mm 2 m/s 740 mmHg 96%
    04:00 +16°C° 0.3 mm 3 m/s 740 mmHg 97%
    05:00 +16°C° 0.3 mm 3 m/s 740 mmHg 97%
    06:00 +16°C° 0 mm 3 m/s 740 mmHg 95%
    07:00 +17°C° 0 mm 4 m/s 740 mmHg 92%
    08:00 +18°C° 0 mm 4 m/s 740 mmHg 90%
    09:00 +19°C° 0.3 mm 5 m/s 740 mmHg 87%
    10:00 +19°C° 0.3 mm 5 m/s 740 mmHg 85%
    11:00 +20°C° 0.3 mm 6 m/s 740 mmHg 82%
    12:00 +20°C° 0.6 mm 6 m/s 740 mmHg 82%
    13:00 +20°C° 0.6 mm 7 m/s 740 mmHg 81%
    14:00 +20°C° 0.6 mm 7 m/s 740 mmHg 81%
    15:00 +18°C° 0.2 mm 7 m/s 739 mmHg 80%
    16:00 +18°C° 0.2 mm 7 m/s 739 mmHg 79%
    17:00 +18°C° 0.2 mm 7 m/s 739 mmHg 78%
    18:00 +16°C° 0 mm 7 m/s 739 mmHg 80%
    19:00 +15°C° 0 mm 6 m/s 739 mmHg 83%
    20:00 +14°C° 0 mm 6 m/s 739 mmHg 85%
    21:00 +14°C° 0.2 mm 6 m/s 740 mmHg 86%
    22:00 +14°C° 0.2 mm 7 m/s 740 mmHg 86%
    23:00 +14°C° 0.2 mm 7 m/s 740 mmHg 86%

    Poimâine, 22 Mai, Miercuri

    Timp Temperatura Precipitaţii Vânt Presiune Umiditate
    00:00 +14°C° 0.3 mm 7 m/s 740 mmHg 87%
    01:00 +14°C° 0.3 mm 7 m/s 740 mmHg 88%
    02:00 +14°C° 0.3 mm 7 m/s 740 mmHg 89%
    03:00 +14°C° 0.1 mm 6 m/s 740 mmHg 90%
    04:00 +13°C° 0.1 mm 5 m/s 740 mmHg 91%
    05:00 +13°C° 0.1 mm 5 m/s 740 mmHg 92%
    06:00 +14°C° 0 mm 5 m/s 741 mmHg 90%
    07:00 +14°C° 0 mm 5 m/s 741 mmHg 88%
    08:00 +15°C° 0 mm 5 m/s 741 mmHg 87%
    09:00 +16°C° 0.3 mm 5 m/s 741 mmHg 83%
    10:00 +17°C° 0.3 mm 5 m/s 741 mmHg 79%
    11:00 +19°C° 0.3 mm 5 m/s 742 mmHg 76%
    12:00 +19°C° 0.7 mm 6 m/s 742 mmHg 76%
    13:00 +19°C° 0.7 mm 6 m/s 742 mmHg 77%
    14:00 +19°C° 0.7 mm 6 m/s 742 mmHg 78%
    15:00 +17°C° 0.1 mm 6 m/s 742 mmHg 78%
    16:00 +17°C° 0.1 mm 6 m/s 741 mmHg 78%
    17:00 +17°C° 0.1 mm 6 m/s 741 mmHg 78%
    18:00 +16°C° 0 mm 5 m/s 741 mmHg 81%
    19:00 +17°C° 0 mm 4 m/s 741 mmHg 83%
    20:00 +15°C° 0 mm 4 m/s 742 mmHg 86%
    21:00 +14°C° 0 mm 4 m/s 742 mmHg 88%
    22:00 +14°C° 0 mm 4 m/s 742 mmHg 91%
    23:00 +14°C° 0 mm 5 m/s 742 mmHg 94%

    23 Mai, Joi

    Timp Temperatura Precipitaţii Vânt Presiune Umiditate
    00:00 +13°C° 0 mm 4 m/s 742 mmHg 95%
    01:00 +13°C° 0 mm 4 m/s 742 mmHg 95%
    02:00 +13°C° 0 mm 4 m/s 742 mmHg 96%
    03:00 +13°C° 0.1 mm 4 m/s 742 mmHg 94%
    04:00 +13°C° 0.1 mm 4 m/s 742 mmHg 93%
    05:00 +14°C° 0.1 mm 4 m/s 742 mmHg 92%
    06:00 +14°C° 0.1 mm 4 m/s 742 mmHg 92%
    07:00 +14°C° 0.1 mm 4 m/s 743 mmHg 92%
    08:00 +14°C° 0.1 mm 4 m/s 743 mmHg 92%
    09:00 +15°C° 0.1 mm 4 m/s 743 mmHg 90%
    10:00 +16°C° 0.1 mm 3 m/s 743 mmHg 89%
    11:00 +17°C° 0.1 mm 3 m/s 744 mmHg 87%
    12:00 +17°C° 0.9 mm 4 m/s 744 mmHg 87%
    13:00 +16°C° 0.9 mm 6 m/s 744 mmHg 87%
    14:00 +16°C° 0.9 mm 7 m/s 744 mmHg 87%
    15:00 +15°C° 0.2 mm 7 m/s 745 mmHg 88%
    16:00 +14°C° 0.2 mm 7 m/s 745 mmHg 89%
    17:00 +12°C° 0.2 mm 8 m/s 745 mmHg 90%
    18:00 +12°C° 0.2 mm 7 m/s 745 mmHg 91%
    19:00 +11°C° 0.2 mm 6 m/s 745 mmHg 92%
    20:00 +10°C° 0.2 mm 6 m/s 745 mmHg 93%
    21:00 +10°C° 0.2 mm 6 m/s 745 mmHg 93%
    22:00 +10°C° 0.2 mm 5 m/s 746 mmHg 93%
    23:00 +10°C° 0.2 mm 5 m/s 746 mmHg 94%

    24 Mai, Vineri

    Timp Temperatura Precipitaţii Vânt Presiune Umiditate
    00:00 +9°C° 0.3 mm 5 m/s 746 mmHg 93%
    01:00 +9°C° 0.3 mm 5 m/s 746 mmHg 93%
    02:00 +8°C° 0.3 mm 5 m/s 746 mmHg 92%
    03:00 +8°C° 0.2 mm 5 m/s 745 mmHg 92%
    04:00 +8°C° 0.2 mm 4 m/s 745 mmHg 92%
    05:00 +8°C° 0.2 mm 4 m/s 745 mmHg 92%
    06:00 +8°C° 0.3 mm 4 m/s 745 mmHg 92%
    07:00 +8°C° 0.3 mm 4 m/s 745 mmHg 92%
    08:00 +8°C° 0.3 mm 4 m/s 745 mmHg 92%
    09:00 +10°C° 0.2 mm 4 m/s 745 mmHg 91%
    10:00 +10°C° 0.2 mm 4 m/s 745 mmHg 89%
    11:00 +11°C° 0.2 mm 3 m/s 745 mmHg 88%
    12:00 +12°C° 0.1 mm 3 m/s 745 mmHg 83%
    13:00 +14°C° 0.1 mm 3 m/s 745 mmHg 79%
    14:00 +16°C° 0.1 mm 3 m/s 744 mmHg 74%
    15:00 +16°C° 0 mm 3 m/s 744 mmHg 74%
    16:00 +16°C° 0 mm 2 m/s 744 mmHg 75%
    17:00 +17°C° 0 mm 2 m/s 743 mmHg 75%
    18:00 +16°C° 0 mm 2 m/s 743 mmHg 79%
    19:00 +15°C° 0 mm 2 m/s 743 mmHg 84%
    20:00 +14°C° 0 mm 1 m/s 743 mmHg 88%
    21:00 +13°C° 0 mm 1 m/s 743 mmHg 89%
    22:00 +12°C° 0 mm 1 m/s 743 mmHg 90%
    23:00 +10°C° 0 mm 0 m/s 743 mmHg 91%

    25 Mai, Sâmbătă

    Timp Temperatura Precipitaţii Vânt Presiune Umiditate
    00:00 +11°C° 0 mm 1 m/s 743 mmHg 91%
    01:00 +10°C° 0 mm 1 m/s 742 mmHg 91%
    02:00 +10°C° 0 mm 1 m/s 742 mmHg 91%
    03:00 +10°C° 0 mm 1 m/s 742 mmHg 91%
    04:00 +10°C° 0 mm 1 m/s 742 mmHg 91%
    05:00 +10°C° 0 mm 1 m/s 742 mmHg 91%
    06:00 +12°C° 0 mm 1 m/s 742 mmHg 87%
    07:00 +13°C° 0 mm 1 m/s 742 mmHg 82%
    08:00 +15°C° 0 mm 1 m/s 743 mmHg 78%
    09:00 +16°C° 0 mm 1 m/s 743 mmHg 74%
    10:00 +18°C° 0 mm 2 m/s 742 mmHg 70%
    11:00 +19°C° 0 mm 2 m/s 742 mmHg 66%
    12:00 +19°C° 0.3 mm 2 m/s 742 mmHg 66%
    13:00 +19°C° 0.3 mm 2 m/s 742 mmHg 67%
    14:00 +19°C° 0.3 mm 2 m/s 742 mmHg 68%
    15:00 +20°C° 0.1 mm 2 m/s 742 mmHg 66%
    16:00 +20°C° 0.1 mm 2 m/s 741 mmHg 64%
    17:00 +21°C° 0.1 mm 2 m/s 741 mmHg 62%
    18:00 +20°C° 0.1 mm 1 m/s 741 mmHg 67%
    19:00 +19°C° 0.1 mm 1 m/s 741 mmHg 72%
    20:00 +15°C° 0.1 mm 0 m/s 741 mmHg 76%
    21:00 +15°C° 0 mm 0 m/s 742 mmHg 79%
    22:00 +14°C° 0 mm 0 m/s 742 mmHg 81%
    23:00 +13°C° 0 mm 0 m/s 742 mmHg 83%
    Arată mai mult